Regional Weather Roundup
Issued by NWS

Home | Current Version | Previous Version | Graphics & Text | Print | Product List | Glossary On
Versions: 1 2 3 4 5 6 7 8 9 10 11 12 13 14 15 16 17 18 19 20 21 22 23 24 25 26 27 28 29 30 31 32 33 34 35 36 37 38 39 40 41 42 43 44 45 46 47 48 49 50
000
ASUS43 KLOT 302208
RWRIL

ILLINOIS REGIONAL WEATHER ROUNDUP
NATIONAL WEATHER SERVICE CHICAGO/ROMEOVILLE IL
500 PM CDT SUN AUG 30 2015

NOTE: "FAIR" INDICATES FEW OR NO CLOUDS BELOW 12,000 FEET WITH NO
SIGNIFICANT WEATHER AND/OR OBSTRUCTIONS TO VISIBILITY.

* THESE STATIONS ARE NOT UNDER NWS QUALITY CONTROL. THEY ALSO MAY NOT
  REPORT WEATHER SUCH AS PRECIPITATION OR FOG.

ILZ001-002-007-009-015-016-024-302300-
NORTHWEST ILLINOIS

CITY           SKY/WX    TMP DP  RH WIND       PRES   REMARKS
MOLINE         SUNNY     80  64  58 NW3       30.02F HX  82
STERLING*        N/A    N/A N/A N/A MISG        N/A
SAVANNA*       SUNNY     76  63  64 CALM      30.03S
$$

ILZ003-004-008-010-011-017-018-302300-
NORTH CENTRAL ILLINOIS

CITY           SKY/WX    TMP DP  RH WIND       PRES   REMARKS
ROCKFORD       MOSUNNY   74  63  68 SW6       30.04F
FREEPORT*      MOSUNNY   74  64  70 CALM      30.05F
ROCHELLE*      SUNNY     74  64  70 CALM      30.04F
DE KALB*       MOSUNNY   74  64  70 CALM      30.04F
PERU*          SUNNY     76  63  62 CALM      30.03F
$$

ILZ005-006-012>014-019>023-302300-
NORTHEAST ILLINOIS

CITY           SKY/WX    TMP DP  RH WIND       PRES   REMARKS
CHICAGO-OHARE  MOSUNNY   76  63  64 SW5       30.02F
CHICAGO-MIDWAY MOSUNNY   77  65  66 E5        30.02F
AURORA         CLOUDY    77  64  64 CALM      30.03F
LANSING*       PTSUNNY   76  66  71 NE3       30.02F
JOLIET*        MOSUNNY   80  66  61 CALM      30.02F HX  82
WAUKEGAN       CLOUDY    68  63  84 E6        30.03F
DUPAGE AIRPORT MOSUNNY   76  63  64 W5        30.03S
KANKAKEE*      MOSUNNY   80  68  68 SW3       30.03F HX  82
WHEELING       SUNNY     76  61  59 W5        30.04S
MORRIS*        MOSUNNY   78  66  66 CALM      30.01F HX  80
ROMEOVILLE*    PTSUNNY   78  62  59 SW5       30.03S
NORTHERLY ISL    N/A     70  64  81 NE7         N/A
$$

LMZ740>746-302300-
SOUTHERN LAKE MICHIGAN

STATION/POSITION SKY/WX   TEMP    WIND        PRES    VSBY  WAVE
                          AIR SEA DIR/SP/G                  HT/PER
                          (F)     (DEG/KT/KT) (MB)    (MI)  (FT/S)
SOUTHERN BUOY              67 69  330/  2/  4 1016.9F         1
WILMETTE HARBOR            62 61   50/  2/  4   N/A           1/ 3
HARRISON CRIB              67      40/  7/  7   N/A
BURNHAM HARBOR             70      10/  5/  7   N/A
BURNS HARBOR               71      40/  7/  8 1017.6
MICHIGAN CITY              72     360/  4/  5   N/A
MICHIGAN CITY 6N           69 72   40/  6/  8   N/A           1/ 3
ST. JOSEPH                 69 71   60/  4/  6   N/A           1/ 3
$$

ILZ025>027-034>036-040-047-049-050-058-095>099-302300-
WEST-CENTRAL ILLINOIS

CITY           SKY/WX    TMP DP  RH WIND       PRES   REMARKS
QUINCY         MOSUNNY   86  67  52 VRB3      30.00F HX  89
GALESBURG*     PTSUNNY   81  67  62 CALM      30.02F HX  84
MACOMB*        MOSUNNY   82  68  63 N5        30.03F HX  85
JACKSONVILLE*  SUNNY     86  69  57 CALM      29.99F HX  90
PITTSFIELD*    PTSUNNY   85  70  60 E3        30.01F HX  90
$$

ILZ028>032-037-038-041>044-048-051>054-059>061-302300-
CENTRAL ILLINOIS

CITY           SKY/WX    TMP DP  RH WIND       PRES   REMARKS
PONTIAC        SUNNY     79  69  72 CALM      30.03S HX  82
BLOOMINGTON    MOSUNNY   84  70  63 VRB7      30.03F HX  88
DECATUR        SUNNY     86  65  49 W6        30.00F HX  88
PEORIA         SUNNY     83  67  58 N5        30.01F HX  85
LACON*         SUNNY     77  65  66 CALM      30.01F
LINCOLN*       SUNNY     86  68  54 NE3       29.99S HX  89
SPRINGFIELD    MOSUNNY   86  70  58 W3        30.00S HX  90
TAYLORVILLE    MOSUNNY   82  70  65 SE6       30.00F HX  86
$$

ILZ033-039-045-046-055>057-062-063-302300-
EAST-CENTRAL ILLINOIS

CITY           SKY/WX    TMP DP  RH WIND       PRES   REMARKS
CHAMPAIGN      PTSUNNY   85  65  51 CALM      30.01F HX  86
RANTOUL*       MOSUNNY   85  71  62 SW3       30.01F HX  89
MATTOON        MOSUNNY   83  65  54 S8        30.01S HX  85
PARIS*         CLOUDY    85  67  54 SW7       30.02S HX  88
$$

ILZ079-100>102-302300-
SOUTHWEST ILLINOIS

CITY           SKY/WX    TMP DP  RH WIND       PRES   REMARKS
ALTON          MOSUNNY  N/A N/A N/A SE5       30.00F
BELLEVILLE     SUNNY     87  72  61 E3        29.98F HX  93
CAHOKIA*       MOSUNNY   88  68  51 SE3       29.98F HX  91
SPARTA*        MOSUNNY   85  71  63 S7        30.01S HX  90
$$

ILZ064>066-069>071-074>076-080>082-084>086-088>090-092>094-302300-
SOUTH-CENTRAL ILLINOIS

CITY           SKY/WX    TMP DP  RH WIND       PRES   REMARKS
CARBONDALE     MOSUNNY   84  71  65 S10       30.01S HX  89
CAIRO*         SUNNY     83  75  75 SE5       30.02R HX  91
EFFINGHAM*     MOSUNNY   84  63  49 S5        30.03S HX  85
MARION         PTSUNNY   86  72  62 S9        30.02S HX  92
MT. VERNON     MOSUNNY   88  68  51 SE5       30.02S HX  91
SALEM*         PTSUNNY   86  68  54 SW6       30.01S HX  89
METROPOLIS*    MOSUNNY   86  75  70 E3        30.03S HX  94
$$

ILZ067-068-072-073-078-083-087-091-302300-
SOUTHEAST ILLINOIS

CITY           SKY/WX    TMP DP  RH WIND       PRES   REMARKS
LAWRENCEVILLE  MOSUNNY   86  65  49 SW7       30.02S HX  88
FLORA*         MOSUNNY   84  65  53 S6        30.02S HX  86
FAIRFIELD*     CLOUDY    84  68  58 S5        30.01S HX  87
HARRISBURG*    PTSUNNY   85  72  63 S7        30.02S HX  91
ROBINSON*      MOSUNNY   86  64  47 S6        30.02F HX  88
CARMI*         MOSUNNY   84  71  64 S8        30.02S HX  88
$$

ABBREVIATIONS USED IN REMARKS
   TC - TEMPERATURE IN CELSIUS
  WCI - WIND CHILL INDEX
   HX - HEAT INDEX
  VSB - VISIBILITY
$$



USA.gov is the U.S. government's official web portal to all federal, state and local government web resources and services.